RPA876 KPWM-KPHL

Flight info

Callsign RPA876
Flight time 1h 4m
Altitude 32000
Route NUBLE4 CCC MANTA Q439 BRIGS JIIMS4
Aircraft E75L/M-SDE3GILORVW/S

Departure

Time 2026-04-16 13:59
Airport Portland International Jetport (KPWM)

Arrival

Time 2026-04-16 15:04
Airport Philadelphia International Airport (KPHL)
Time Latitude Longitude Altitude Speed Heading
2026-04-16 13:46 43.64678 -70.31075 60 ft 0 kts
2026-04-16 13:54 43.64660 -70.31074 52 ft 4 kts 342°
2026-04-16 13:54 43.64639 -70.31078 54 ft 4 kts 30°
2026-04-16 13:54 43.64618 -70.31100 57 ft 4 kts 48°
2026-04-16 13:55 43.64606 -70.31131 61 ft 4 kts 88°
2026-04-16 13:55 43.64608 -70.31148 61 ft 2 kts 119°
2026-04-16 13:56 43.64607 -70.31145 61 ft 2 kts 118°
2026-04-16 13:56 43.64596 -70.31064 61 ft 14 kts 96°
2026-04-16 13:56 43.64586 -70.30902 55 ft 20 kts 94°
2026-04-16 13:57 43.64569 -70.30697 56 ft 23 kts 98°
2026-04-16 13:57 43.64556 -70.30482 50 ft 21 kts 94°
2026-04-16 13:57 43.64542 -70.30263 52 ft 24 kts 96°
2026-04-16 13:58 43.64522 -70.30001 51 ft 7 kts 95°
2026-04-16 13:58 43.64496 -70.29919 47 ft 10 kts 154°
2026-04-16 13:58 43.64423 -70.29927 46 ft 10 kts 223°
2026-04-16 13:58 43.64413 -70.30037 47 ft 23 kts 274°
2026-04-16 13:59 43.64451 -70.30617 55 ft 99 kts 275°
2026-04-16 13:59 43.64541 -70.31878 112 ft 160 kts 276°
2026-04-16 13:59 43.64644 -70.33449 952 ft 161 kts 275°
2026-04-16 13:59 43.64725 -70.34894 1888 ft 153 kts 274°
2026-04-16 14:00 43.64778 -70.36494 2231 ft 177 kts 273°
2026-04-16 14:00 43.64837 -70.38273 2696 ft 194 kts 274°
2026-04-16 14:00 43.64906 -70.40225 3174 ft 215 kts 274°
2026-04-16 14:00 43.64984 -70.42417 3621 ft 243 kts 273°
2026-04-16 14:01 43.64766 -70.44831 4168 ft 265 kts 249°
2026-04-16 14:01 43.63648 -70.46872 4990 ft 273 kts 217°
2026-04-16 14:01 43.62104 -70.48396 6056 ft 272 kts 211°
2026-04-16 14:01 43.60542 -70.49855 7248 ft 270 kts 212°
2026-04-16 14:02 43.58991 -70.51307 8361 ft 269 kts 212°
2026-04-16 14:02 43.57428 -70.52740 9430 ft 271 kts 213°
2026-04-16 14:02 43.55834 -70.54160 10374 ft 280 kts 214°
2026-04-16 14:02 43.54145 -70.55616 11070 ft 293 kts 215°
2026-04-16 14:03 43.52325 -70.57012 11819 ft 307 kts 208°
2026-04-16 14:03 43.50282 -70.57999 12663 ft 316 kts 202°
2026-04-16 14:03 43.48158 -70.58863 13579 ft 321 kts 202°
2026-04-16 14:03 43.46003 -70.59748 14474 ft 326 kts 202°
2026-04-16 14:04 43.43809 -70.60647 15417 ft 331 kts 203°
2026-04-16 14:04 43.41590 -70.61558 16314 ft 336 kts 203°
2026-04-16 14:04 43.39335 -70.62479 17145 ft 340 kts 203°
2026-04-16 14:04 43.37053 -70.63409 17917 ft 345 kts 203°
2026-04-16 14:05 43.34736 -70.64351 18664 ft 349 kts 203°
2026-04-16 14:05 43.32388 -70.65305 19362 ft 355 kts 203°
2026-04-16 14:05 43.30009 -70.66268 20077 ft 359 kts 203°
2026-04-16 14:05 43.27599 -70.67241 20787 ft 363 kts 203°
2026-04-16 14:06 43.25165 -70.68222 21486 ft 366 kts 203°
2026-04-16 14:06 43.22713 -70.69210 22146 ft 370 kts 203°
2026-04-16 14:06 43.20227 -70.70207 22750 ft 374 kts 203°
2026-04-16 14:06 43.17720 -70.71213 23347 ft 377 kts 204°
2026-04-16 14:07 43.15308 -70.72543 23866 ft 372 kts 213°
2026-04-16 14:07 43.13011 -70.74196 24394 ft 374 kts 215°
2026-04-16 14:07 43.10699 -70.75869 24931 ft 377 kts 214°
2026-04-16 14:07 43.08371 -70.77546 25470 ft 380 kts 214°
2026-04-16 14:08 43.06025 -70.79233 25995 ft 382 kts 214°
2026-04-16 14:08 43.03665 -70.80927 26495 ft 385 kts 214°
2026-04-16 14:08 43.01285 -70.82633 26964 ft 388 kts 214°
2026-04-16 14:08 42.98890 -70.84350 27457 ft 390 kts 214°
2026-04-16 14:09 42.96483 -70.86072 27891 ft 392 kts 214°
2026-04-16 14:09 42.94055 -70.87805 28287 ft 396 kts 214°
2026-04-16 14:09 42.91609 -70.89555 28725 ft 397 kts 214°
2026-04-16 14:09 42.89187 -70.91283 29128 ft 399 kts 214°
2026-04-16 14:10 42.86687 -70.93070 29519 ft 402 kts 214°
2026-04-16 14:10 42.84204 -70.94841 29902 ft 404 kts 213°
2026-04-16 14:10 42.81586 -70.96348 30222 ft 412 kts 207°
2026-04-16 14:10 42.78876 -70.97673 30561 ft 415 kts 206°
2026-04-16 14:11 42.76153 -70.98997 30912 ft 416 kts 206°
2026-04-16 14:11 42.73415 -71.00327 31216 ft 419 kts 206°
2026-04-16 14:11 42.70703 -71.01644 31529 ft 421 kts 206°
2026-04-16 14:11 42.67940 -71.02984 31826 ft 423 kts 206°
2026-04-16 14:12 42.65166 -71.04331 32119 ft 425 kts 206°
2026-04-16 14:12 42.62351 -71.05700 32096 ft 434 kts 206°
2026-04-16 14:12 42.56569 -71.08503 32107 ft 446 kts 206°
2026-04-16 14:13 42.50708 -71.11335 32002 ft 448 kts 206°
2026-04-16 14:13 42.44823 -71.14172 31996 ft 449 kts 206°
2026-04-16 14:14 42.39353 -71.17929 32015 ft 436 kts 221°
2026-04-16 14:14 42.34455 -71.22792 32002 ft 437 kts 221°
2026-04-16 14:15 42.29543 -71.27668 31994 ft 437 kts 221°
2026-04-16 14:15 42.24643 -71.32524 32009 ft 438 kts 221°
2026-04-16 14:16 42.19761 -71.37355 32004 ft 438 kts 221°
2026-04-16 14:16 42.14843 -71.42209 31999 ft 438 kts 221°
2026-04-16 14:17 42.09918 -71.47060 31998 ft 438 kts 221°
2026-04-16 14:17 42.04996 -71.51903 32000 ft 438 kts 221°
2026-04-16 14:18 42.00899 -71.55926 31999 ft 439 kts 221°
2026-04-16 14:18 41.95951 -71.60773 31997 ft 440 kts 221°
2026-04-16 14:19 41.90996 -71.65620 32001 ft 440 kts 221°
2026-04-16 14:19 41.86037 -71.70464 31982 ft 440 kts 221°
2026-04-16 14:20 41.81082 -71.75291 31994 ft 440 kts 221°
2026-04-16 14:20 41.76157 -71.80079 31991 ft 440 kts 221°
2026-04-16 14:21 41.71200 -71.84889 31982 ft 440 kts 221°
2026-04-16 14:21 41.66240 -71.89694 31978 ft 440 kts 221°
2026-04-16 14:22 41.61272 -71.94493 31973 ft 441 kts 221°
2026-04-16 14:22 41.56301 -71.99298 31974 ft 440 kts 222°
2026-04-16 14:23 41.51852 -72.04798 31981 ft 435 kts 229°
2026-04-16 14:23 41.47501 -72.10413 31966 ft 435 kts 229°
2026-04-16 14:24 41.43150 -72.16021 31974 ft 435 kts 229°
2026-04-16 14:24 41.38791 -72.21625 31974 ft 436 kts 229°
2026-04-16 14:25 41.34422 -72.27229 31970 ft 437 kts 229°
2026-04-16 14:25 41.30050 -72.32825 31991 ft 436 kts 229°
2026-04-16 14:26 41.25676 -72.38412 31979 ft 436 kts 229°
2026-04-16 14:26 41.21293 -72.44002 31991 ft 437 kts 229°
2026-04-16 14:27 41.16927 -72.49562 31977 ft 438 kts 229°
2026-04-16 14:27 41.12525 -72.55152 31977 ft 438 kts 228°
2026-04-16 14:28 41.08121 -72.60732 31983 ft 438 kts 228°
2026-04-16 14:28 41.03718 -72.66303 31991 ft 438 kts 228°
2026-04-16 14:29 40.99307 -72.71873 31999 ft 439 kts 228°
2026-04-16 14:29 40.94888 -72.77444 32000 ft 439 kts 228°
2026-04-16 14:30 40.89867 -72.82150 32016 ft 449 kts 214°
2026-04-16 14:30 40.84409 -72.86163 32002 ft 449 kts 214°
2026-04-16 14:31 40.78955 -72.90174 31997 ft 449 kts 214°
2026-04-16 14:31 40.73498 -72.94183 32000 ft 449 kts 214°
2026-04-16 14:32 40.68039 -72.98191 31996 ft 449 kts 214°
2026-04-16 14:32 40.62577 -73.02185 31993 ft 449 kts 214°
2026-04-16 14:33 40.57114 -73.06176 31992 ft 449 kts 214°
2026-04-16 14:33 40.51640 -73.10166 31990 ft 450 kts 214°
2026-04-16 14:34 40.46163 -73.14152 32000 ft 450 kts 214°
2026-04-16 14:34 40.40685 -73.18132 32000 ft 450 kts 214°
2026-04-16 14:35 40.35205 -73.22107 32001 ft 450 kts 214°
2026-04-16 14:35 40.29716 -73.26075 31998 ft 451 kts 214°
2026-04-16 14:36 40.24227 -73.30041 32001 ft 450 kts 214°
2026-04-16 14:36 40.18741 -73.33996 32001 ft 450 kts 214°
2026-04-16 14:37 40.13250 -73.37950 31999 ft 451 kts 214°
2026-04-16 14:37 40.07756 -73.41897 31999 ft 451 kts 214°
2026-04-16 14:38 40.02258 -73.45835 32001 ft 451 kts 214°
2026-04-16 14:38 39.96760 -73.49773 32014 ft 452 kts 214°
2026-04-16 14:39 39.91288 -73.53780 32011 ft 447 kts 220°
2026-04-16 14:39 39.89000 -73.56441 32020 ft 438 kts 233°
2026-04-16 14:39 39.87023 -73.59453 32036 ft 437 kts 234°
2026-04-16 14:40 39.83111 -73.65512 32006 ft 436 kts 234°
2026-04-16 14:40 39.79227 -73.71574 32009 ft 436 kts 235°
2026-04-16 14:41 39.75387 -73.77673 32007 ft 436 kts 235°
2026-04-16 14:41 39.71545 -73.83750 32010 ft 436 kts 235°
2026-04-16 14:42 39.67694 -73.89825 32008 ft 436 kts 235°
2026-04-16 14:42 39.65770 -73.92854 31650 ft 432 kts 235°
2026-04-16 14:42 39.63874 -73.95830 31112 ft 422 kts 235°
2026-04-16 14:43 39.62016 -73.98746 30126 ft 421 kts 235°
2026-04-16 14:43 39.60156 -74.01666 29333 ft 416 kts 235°
2026-04-16 14:43 39.58310 -74.04558 28661 ft 411 kts 236°
2026-04-16 14:43 39.56508 -74.07369 28074 ft 402 kts 236°
2026-04-16 14:44 39.54744 -74.10124 27588 ft 392 kts 236°
2026-04-16 14:44 39.53220 -74.12958 27032 ft 375 kts 251°
2026-04-16 14:44 39.52527 -74.16079 26627 ft 361 kts 265°
2026-04-16 14:44 39.52443 -74.19299 26108 ft 357 kts 274°
2026-04-16 14:45 39.52527 -74.22512 25631 ft 357 kts 274°
2026-04-16 14:45 39.52609 -74.25725 25161 ft 356 kts 274°
2026-04-16 14:45 39.52684 -74.28914 24689 ft 354 kts 274°
2026-04-16 14:45 39.52760 -74.32100 24217 ft 352 kts 275°
2026-04-16 14:46 39.52831 -74.35255 23751 ft 349 kts 275°
2026-04-16 14:46 39.52900 -74.38390 23290 ft 347 kts 274°
2026-04-16 14:46 39.52935 -74.41509 22827 ft 346 kts 273°
2026-04-16 14:46 39.52973 -74.44608 22390 ft 343 kts 273°
2026-04-16 14:47 39.53015 -74.47692 21930 ft 341 kts 273°
2026-04-16 14:47 39.53059 -74.50759 21479 ft 340 kts 273°
2026-04-16 14:47 39.53105 -74.53811 21029 ft 338 kts 273°
2026-04-16 14:47 39.53155 -74.56849 20585 ft 336 kts 272°
2026-04-16 14:48 39.53203 -74.59868 20139 ft 334 kts 272°
2026-04-16 14:48 39.53252 -74.62871 19694 ft 333 kts 272°
2026-04-16 14:48 39.53298 -74.65857 19258 ft 331 kts 272°
2026-04-16 14:48 39.53345 -74.68828 18815 ft 329 kts 271°
2026-04-16 14:49 39.53390 -74.71784 18380 ft 327 kts 271°
2026-04-16 14:49 39.53434 -74.74723 17946 ft 326 kts 271°
2026-04-16 14:49 39.53478 -74.77647 17515 ft 324 kts 271°
2026-04-16 14:49 39.53523 -74.80554 17090 ft 322 kts 271°
2026-04-16 14:50 39.53566 -74.83448 16669 ft 320 kts 271°
2026-04-16 14:50 39.53608 -74.86326 16235 ft 319 kts 270°
2026-04-16 14:50 39.53650 -74.89196 15813 ft 318 kts 270°
2026-04-16 14:50 39.53692 -74.92010 15404 ft 316 kts 270°
2026-04-16 14:51 39.54008 -74.94815 14979 ft 318 kts 287°
2026-04-16 14:51 39.55060 -74.97313 14559 ft 318 kts 304°
2026-04-16 14:51 39.56690 -74.99264 14134 ft 318 kts 319°
2026-04-16 14:51 39.58478 -75.00928 13691 ft 314 kts 319°
2026-04-16 14:53 39.71383 -75.09014 10893 ft 307 kts 358°
2026-04-16 14:53 39.73459 -75.08365 10570 ft 314 kts 24°
2026-04-16 14:54 39.75151 -75.06555 10176 ft 319 kts 47°
2026-04-16 14:54 39.76522 -75.04282 9743 ft 320 kts 51°
2026-04-16 14:54 39.77875 -75.01981 9252 ft 320 kts 50°
2026-04-16 14:54 39.79272 -74.99718 8820 ft 320 kts 49°
2026-04-16 14:55 39.80678 -74.97499 8394 ft 318 kts 48°
2026-04-16 14:55 39.82100 -74.95318 8008 ft 315 kts 47°
2026-04-16 14:55 39.83414 -74.93073 7507 ft 307 kts 61°
2026-04-16 14:55 39.84115 -74.90550 7126 ft 286 kts 74°
2026-04-16 14:56 39.84600 -74.88132 6710 ft 267 kts 74°
2026-04-16 14:56 39.85177 -74.85928 6364 ft 248 kts 59°
2026-04-16 14:56 39.86259 -74.84312 6027 ft 229 kts 29°
2026-04-16 14:56 39.87659 -74.83588 5728 ft 209 kts
2026-04-16 14:57 39.89068 -74.83695 5147 ft 204 kts 337°
2026-04-16 14:57 39.90348 -74.84430 4637 ft 201 kts 330°
2026-04-16 14:57 39.91622 -74.85210 4146 ft 202 kts 330°
2026-04-16 14:57 39.92737 -74.86274 3638 ft 199 kts 309°
2026-04-16 14:58 39.93347 -74.87853 3132 ft 195 kts 279°
2026-04-16 14:58 39.93056 -74.91344 2146 ft 192 kts 258°
2026-04-16 14:58 39.92845 -74.93010 2145 ft 183 kts 260°
2026-04-16 14:59 39.92680 -74.94674 2161 ft 186 kts 260°
2026-04-16 14:59 39.92495 -74.96350 2227 ft 187 kts 260°
2026-04-16 14:59 39.92306 -74.98023 2232 ft 187 kts 259°
2026-04-16 14:59 39.92068 -74.99702 2115 ft 190 kts 254°
2026-04-16 15:00 39.91724 -75.01310 2141 ft 180 kts 252°
2026-04-16 15:00 39.91369 -75.02885 2097 ft 182 kts 251°
2026-04-16 15:00 39.91033 -75.04464 2080 ft 175 kts 255°
2026-04-16 15:00 39.90743 -75.06005 2114 ft 178 kts 256°
2026-04-16 15:01 39.90436 -75.07538 2109 ft 176 kts 255°
2026-04-16 15:01 39.90128 -75.09082 2081 ft 178 kts 255°
2026-04-16 15:01 39.89820 -75.10667 1824 ft 181 kts 255°
2026-04-16 15:01 39.89510 -75.12243 1605 ft 180 kts 255°
2026-04-16 15:02 39.89196 -75.13817 1357 ft 177 kts 255°
2026-04-16 15:02 39.88890 -75.15354 1145 ft 173 kts 255°
2026-04-16 15:02 39.88603 -75.16813 887 ft 159 kts 255°
2026-04-16 15:02 39.88339 -75.18163 687 ft 150 kts 254°
2026-04-16 15:03 39.88077 -75.19473 501 ft 149 kts 254°
2026-04-16 15:03 39.87817 -75.20776 302 ft 149 kts 255°
2026-04-16 15:03 39.87563 -75.22084 97 ft 148 kts 255°
2026-04-16 15:03 39.87311 -75.23325 13 ft 128 kts 255°
2026-04-16 15:04 39.87169 -75.24088 18 ft 48 kts 256°
2026-04-16 15:04 39.87172 -75.24337 19 ft 9 kts 279°
2026-04-16 15:04 39.87186 -75.24364 18 ft 2 kts
2026-04-16 15:04 39.87215 -75.24336 18 ft 9 kts 51°
2026-04-16 15:05 39.87252 -75.24247 17 ft 14 kts 70°
2026-04-16 15:05 39.87303 -75.24175 17 ft 11 kts 23°
2026-04-16 15:05 39.87385 -75.24118 17 ft 16 kts 26°
2026-04-16 15:05 39.87401 -75.24108 17 ft 0 kts 25°